Regional Weather Roundup
Issued by NWS

Home | Current Version | Previous Version | Text Only | Print | Product List | Glossary Off
Versions: 1 2 3 4 5 6 7 8 9 10 11 12 13 14 15 16 17 18 19 20 21 22 23 24 25 26 27 28 29 30 31 32 33 34 35 36 37 38 39 40 41 42 43 44 45 46 47 48 49 50

000
ASUS45 KBOU 011607
RWRCO

WEATHER ROUNDUP FOR COLORADO
NATIONAL WEATHER SERVICE DENVER/BOULDER CO
1000 AM MDT MON SEP 01 2014

NOTE: "FAIR" INDICATES FEW OR NO CLOUDS BELOW 12000 FEET WITH NO
SIGNIFICANT WEATHER AND/OR OBSTRUCTIONS TO VISIBILITY.

COZ001>005-013-030-031-011700-
...NORTHWEST COLORADO...

CITY           SKY/WX    TMP DP  RH WIND       PRES   REMARKS
CRAIG          SUNNY     62  43  49 NE5       30.16S
HAYDEN         SUNNY     55  39  54 E8        30.17S
MEEKER         SUNNY     57  39  51 CALM      30.17S
MOUNT WERNER   NOT AVBL
STEAMBOAT SPGS SUNNY     52  41  67 CALM      30.19S
WALDEN         SUNNY     54  30  40 SW13G21   30.22R
$$

COZ006>008-011-011700-
...WEST CENTRAL VALLEYS...

CITY           SKY/WX    TMP DP  RH WIND       PRES   REMARKS
GRAND JUNCTION SUNNY     67  38  34 S3        30.08S
MONTROSE       SUNNY     65  37  35 W5        30.16R
EAGLE          NOT AVBL
RIFLE          SUNNY     60  44  55 CALM      30.14S
DELTA          SUNNY     68  41  37 S5        30.12S
NUCLA          SUNNY     64  36  34 CALM      30.17S
$$

COZ017>023-064>068-011700-
...SOUTHWEST COLORADO...

CITY           SKY/WX    TMP DP  RH WIND       PRES   REMARKS
DURANGO        SUNNY     67  38  34 N3        30.19S
CORTEZ         SUNNY     70  41  34 VRB3      30.15S
PAGOSA SPRINGS NOT AVBL
TELLURIDE      SUNNY     63  36  36 CALM      30.34R
WOLF CREEK PAS SUNNY     46  32  57 S13G18    30.50R
$$

COZ009-010-012-014-032>034-037-058>063-011700-
...CENTRAL COLORADO...

CITY           SKY/WX    TMP DP  RH WIND       PRES   REMARKS
ASPEN          SUNNY     59  35  40 NE3       30.22S
BUENA VISTA    SUNNY     62  32  33 E8        30.21S
COPPER MTN     MOSUNNY   46  27  46 W23G37    30.44R
BERTHOUD PASS  FAIR      34  32  93 NW24G35   30.43R WCI  21
COTTONWOOD PAS SUNNY     59  32  36 SE3       30.32R
GUNNISON       SUNNY     54  36  50 CALM      30.27S
KREMMLING      SUNNY     54  39  58 CALM      30.24R
LEADVILLE      SUNNY     54  26  34 W13G30    30.31S
MONARCH PASS   SUNNY     43  28  56 SW22G31   30.55R
SALIDA         SUNNY     67  41  38 S9        30.25S
SUNLIGHT       SUNNY     52  34  50 CALM      30.41R
WILKERSON PASS NOT AVBL
$$

COZ069>075-011700-
...SAN LUIS VALLEY/SANGRE DE CRISTO MOUNTAINS...

CITY           SKY/WX    TMP DP  RH WIND       PRES   REMARKS
ALAMOSA        SUNNY     66  30  26 S3        30.21S
LA VETA PASS   NOT AVBL
SAGUACHE       NOT AVBL
$$

COZ035-036-038>040-011700-
...NORTHERN COLORADO FRONT RANGE...

CITY           SKY/WX    TMP DP  RH WIND       PRES   REMARKS
DENVER INTL AP MOSUNNY   66  48  52 SE15      30.07S
DMNS CITY PARK   N/A     65  48  53 S5G10     30.07S
AURORA         MOSUNNY   65  50  58 S10       30.09F
FRONT RANGE AP NOT AVBL
ERIE MUNI ARPT SUNNY     66  45  46 S3        30.06S
BOULDER MUN AP SUNNY     64  50  59 CALM      30.07S
CENTENNIAL     MOSUNNY   62  49  62 VRB3      30.10S
BROOMFIELD     MOSUNNY   64  46  52 S7        30.09S
FORT COLLINS   SUNNY     64  46  52 S9        30.07F
LONGMONT       SUNNY     68  50  51 E5        30.07S
$$

COZ041-046-047-076>085-087-088-011700-
...PIKES PEAK/PALMER DIVIDE AND SOUTHERN FOOTHILLS...

CITY           SKY/WX    TMP DP  RH WIND       PRES   REMARKS
COLO. SPRINGS  MOSUNNY   64  46  52 SE21      30.14F
A. F. ACADEMY  SUNNY     62  46  56 S13       30.14S
ELLICOTT       SUNNY     65  42  43 S13       30.13S
FALCON         SUNNY     61  45  56 S16G22    30.18R
FORT CARSON    SUNNY     65  48  53 S15       30.12F
LIMON          SUNNY     66  43  43 SE8       30.11R
MONUMENT HILL  SUNNY     61  45  55 S20G29    30.14R
TRINIDAD       SUNNY     66  48  52 SE8       30.13S
$$

COZ042>045-048>051-090-091-011700-
...NORTHEAST COLORADO...

CITY           SKY/WX    TMP DP  RH WIND       PRES   REMARKS
GREELEY ARPT   SUNNY     66  46  48 S8        30.07S
AKRON          CLOUDY    62  48  60 SW6       30.08R
BURLINGTON     CLOUDY    64  48  56 CALM      30.07R
WRAY             N/A     69  51  53 CALM      30.04R
STERLING       PTSUNNY   66  50  55 SW6       30.04S
HOLYOKE        MOSUNNY   64  52  63 SW3       30.03S
FORT MORGAN    MOSUNNY   65  46  51 SW3       30.07S
$$

COZ086-089-092>099-011700-
...SOUTHEAST COLORADO...

CITY           SKY/WX    TMP DP  RH WIND       PRES   REMARKS
PUEBLO         SUNNY     67  46  47 SE7       30.08F
LA JUNTA       SUNNY     69  47  45 SE6       30.07S
LAMAR          SUNNY     69  51  52 W5        30.03R
SPRINGFIELD      N/A     70  48  45 NW10      30.05R
$$



USA.gov is the U.S. government's official web portal to all federal, state and local government web resources and services.